Change the Weather History Date:

Tuesday, January 15, 2013

  Actual Average Record
Temperature  
Mean Temperature 78 °F -  
Max Temperature 82 °F 82 °F 86 °F (2008)
Min Temperature 73 °F 74 °F 73 °F (1997)
Cooling Degree Days 12    
Growing Degree Days 28 (Base 50)    
Moisture  
Dew Point 71 °F    
Average Humidity 79    
Maximum Humidity 87    
Minimum Humidity 69    
Precipitation  
Precipitation 0.00 in - - ()
Sea Level Pressure  
Sea Level Pressure 29.95 in    
Wind  
Wind Speed 5 mph (East)    
Max Wind Speed 13 mph    
Max Gust Speed -    
Visibility 10 miles    
Events      
Averages and records for this station are not official NWS values.
T = Trace of Precipitation, MM = Missing Value Source: NWS Daily Summary

Daily Weather History Graph

Daily Weather History Graph

Search for Another Location

Airport or City:

Trip Planner

Search our weather history database for the weather conditions in past years. The results will help you decide how hot, cold, wet, or windy it might be!

Date:

Astronomy

Jan. 15, 2013 Rise Set
Actual Time 6:46 AM ChST 6:06 PM ChST
Civil Twilight 6:23 AM ChST 6:29 PM ChST
Nautical Twilight 5:57 AM ChST 6:55 PM ChST
Astronomical Twilight 5:31 AM ChST 7:21 PM ChST
Moon 9:12 AM ChST (1/15) 9:28 PM ChST (1/15)
Length of Visible Light 12h 05m
Length of Day
11h 19m
Waxing Crescent, 14% of the Moon is Illuminated
Jan 15
Waxing Crescent
Jan 19
First Quarter
Jan 27
Full
Feb 3
Last Quarter
Feb 10
New

Hourly Weather History & Observations

Time (ChST) Temp. Heat Index Dew Point Humidity Pressure Visibility Wind Dir Wind Speed Gust Speed Precip Events Conditions
12:54 AM 75.0 °F - 69.1 °F 82% 29.95 in 10.0 mi ESE 5.8 mph - N/A   Mostly Cloudy
1:54 AM 75.0 °F - 70.0 °F 84% 29.94 in 10.0 mi ESE 5.8 mph - N/A   Mostly Cloudy
2:54 AM 75.9 °F - 69.1 °F 79% 29.94 in 10.0 mi East 4.6 mph - N/A   Scattered Clouds
3:54 AM 73.9 °F - 69.1 °F 85% 29.95 in 10.0 mi Calm Calm - N/A   Scattered Clouds
4:54 AM 73.0 °F - 69.1 °F 87% 29.96 in 10.0 mi Calm Calm - N/A   Partly Cloudy
5:54 AM 73.0 °F - 69.1 °F 87% 29.98 in 10.0 mi Calm Calm - N/A   Partly Cloudy
6:54 AM 73.9 °F - 69.1 °F 85% 29.99 in 10.0 mi East 3.5 mph - N/A   Partly Cloudy
7:54 AM 77.0 °F - 72.0 °F 84% 30.00 in 10.0 mi Calm Calm - N/A   Partly Cloudy
8:54 AM 80.1 °F 83.6 °F 71.1 °F 74% 30.01 in 10.0 mi SE 4.6 mph - N/A   Mostly Cloudy
9:54 AM 81.0 °F 84.9 °F 71.1 °F 72% 29.99 in 10.0 mi SSE 5.8 mph - N/A   Mostly Cloudy
10:54 AM 82.0 °F 86.3 °F 71.1 °F 69% 29.96 in 10.0 mi SE 9.2 mph - N/A   Mostly Cloudy
11:54 AM 82.0 °F 86.7 °F 72.0 °F 71% 29.94 in 10.0 mi SE 12.7 mph - N/A   Mostly Cloudy
12:54 PM 82.9 °F 88.0 °F 72.0 °F 69% 29.91 in 10.0 mi SE 12.7 mph - N/A   Mostly Cloudy
1:54 PM 82.9 °F 88.0 °F 72.0 °F 69% 29.90 in 10.0 mi SE 11.5 mph - N/A   Partly Cloudy
2:54 PM 82.0 °F 86.7 °F 72.0 °F 71% 29.90 in 10.0 mi SE 9.2 mph - N/A   Partly Cloudy
3:54 PM 82.0 °F 86.3 °F 71.1 °F 69% 29.92 in 10.0 mi SSE 6.9 mph - N/A   Partly Cloudy
4:54 PM 82.0 °F 86.3 °F 71.1 °F 69% 29.93 in 10.0 mi East 6.9 mph - N/A   Partly Cloudy
5:54 PM 79.0 °F - 71.1 °F 77% 29.94 in 10.0 mi ENE 3.5 mph - N/A   Scattered Clouds
6:54 PM 77.0 °F - 71.1 °F 82% 29.95 in 10.0 mi ENE 3.5 mph - N/A   Scattered Clouds
7:54 PM 77.0 °F - 71.1 °F 82% 29.96 in 10.0 mi North 3.5 mph - N/A   Scattered Clouds
8:54 PM 75.9 °F - 71.1 °F 85% 29.96 in 10.0 mi NNE 3.5 mph - N/A   Scattered Clouds
9:54 PM 75.9 °F - 71.1 °F 85% 29.97 in 10.0 mi North 3.5 mph - N/A   Mostly Cloudy
10:54 PM 75.0 °F - 71.1 °F 87% 29.96 in 10.0 mi NE 3.5 mph - N/A   Scattered Clouds
11:54 PM 75.0 °F - 71.1 °F 87% 29.95 in 10.0 mi ENE 5.8 mph - N/A   Scattered Clouds